This demonstration page uses our WeatherBlox Daily Observations layout. Learn more.

Left ArrowRight Arrow

38.89511, -77.03637

Hourly Observations for January 6, 2019

Temp ( °F °C ) Dew Point ( °F °C ) Humidity (%) Winds ( mph kmh ) Pressure ( in mb ) Visibility ( mi km ) Precip ( " mm )
12:52 am 00:52 Clear 49 9.4 34 1.1 56 56 W 5 7 29.88 1012 10 16 0.00 0.00
1:52 am 01:52 Clear 47 8.3 36 2.2 66 66 SSW 5 7 29.89 1012 10 16 0.00 0.00
2:52 am 02:52 Clear 43 6.1 37 2.8 80 80 S 3 6 29.91 1013 10 16 0.00 0.00
3:52 am 03:52 Partly Cloudy 44 6.7 36 2.2 73 73 SSW 3 6 29.91 1013 10 16 0.00 0.00
4:52 am 04:52 Clear 43 6.1 37 2.8 80 80 S 5 7 29.92 1013 10 16 0.00 0.00
5:52 am 05:52 Mostly Cloudy 40 4.4 35 1.7 83 83 SW 5 7 29.93 1014 10 16 0.00 0.00
6:52 am 06:52 Partly Cloudy 41 5 36 2.2 82 82 SW 3 6 29.96 1015 10 16 0.00 0.00
7:52 am 07:52 Partly Cloudy 41 5 35 1.7 79 79 Calm 30.00 1016 10 16 0.00 0.00
8:52 am 08:52 Partly Cloudy 51 10.6 35 1.7 54 54 W 14 22 30.02 1017 10 16 0.00 0.00
9:52 am 09:52 Partly Cloudy 53 11.7 36 2.2 52 52 W 13 20 30.05 1018 10 16 0.00 0.00
10:52 am 10:52 Mostly Cloudy 55 12.8 37 2.8 51 51 WNW 14 22 30.06 1018 10 16 0.00 0.00
11:52 am 11:52 Mostly Cloudy 55 12.8 35 1.7 47 47 NW 17 28 30.07 1018 10 16 0.00 0.00
12:52 pm 12:52 Mostly Cloudy 56 13.3 33 0.6 42 42 NNW 18 30 30.06 1018 10 16 0.00 0.00
1:52 pm 13:52 Partly Cloudy 56 13.3 32 0 40 40 NW 18 30 30.07 1018 10 16 0.00 0.00
2:52 pm 14:52 Partly Cloudy 56 13.3 30 -1.1 37 37 NNW 20 31 30.10 1019 9 14 0.00 0.00
3:52 pm 15:52 Partly Cloudy 55 12.8 28 -2.2 35 35 NW 21 33 30.12 1020 10 16 0.00 0.00
4:52 pm 16:52 Partly Cloudy 51 10.6 29 -1.7 43 43 NNW 14 22 30.16 1021 10 16 0.00 0.00
5:52 pm 17:52 Partly Cloudy 49 9.4 25 -3.9 39 39 NNW 13 20 30.20 1023 10 16 0.00 0.00
6:52 pm 18:52 Partly Cloudy 48 8.9 25 -3.9 41 41 NNW 12 19 30.23 1024 10 16 0.00 0.00
7:52 pm 19:52 Partly Cloudy 46 7.8 26 -3.3 46 46 NNW 9 15 30.27 1025 10 16 0.00 0.00
8:52 pm 20:52 Mostly Clear 44 6.7 25 -3.9 47 47 NNW 9 15 30.29 1026 10 16 0.00 0.00
9:52 pm 21:52 Mostly Cloudy 45 7.2 24 -4.4 44 44 NNW 7 11 30.32 1027 10 16 0.00 0.00
10:52 pm 22:52 Mostly Cloudy 42 5.6 25 -3.9 51 51 NNW 9 15 30.34 1027 10 16 0.00 0.00
11:52 pm 23:52 Mostly Cloudy 41 5 25 -3.9 53 53 NNW 10 17 30.35 1028 10 16 0.00 0.00

Powered by AerisWeather